Regional Weather Roundup
Issued by NWS Newport/Morehead, NC

Current Version | Previous Version | Graphics & Text | Print | Product List | Glossary Off
Versions: 1 2 3 4 5 6 7 8 9 10 11 12 13 14 15 16 17 18 19 20 21 22 23 24 25 26 27 28 29 30 31 32 33 34 35 36 37 38 39 40 41 42 43 44 45 46 47 48 49 50

000
ASUS42 KMHX 300913
RWRMHX
WEATHER ROUNDUP FOR EASTERN NORTH CAROLINA
NATIONAL WEATHER SERVICE NEWPORT/MOREHEAD CITY NC
500 AM EDT SAT JUL 30 2016

NOTE: "FAIR" INDICATES FEW OR NO CLOUDS BELOW 12,000 FEET
WITH NO SIGNIFICANT WEATHER AND/OR OBSTRUCTIONS TO VISIBILITY

NCZ015>017-031-032-045>047-102-103-301000-
NORTH COAST

CITY           SKY/WX    TMP DP  RH WIND       PRES   REMARKS
EDENTON        CLEAR    N/A N/A N/A CALM      29.94S
ELIZABETH CITY CLEAR     74  73  97 CALM      29.94S
KITTY HAWK     SUNNY     75  75 100 CALM      29.93S
MANTEO           N/A     74  74 100 CALM      29.94S

$$

NCZ045>047-081-094-103-104-301000-
CENTRAL COAST

CITY           SKY/WX    TMP DP  RH WIND       PRES   REMARKS
FRISCO         CLEAR     77  74  90 E3        29.93S FOG

$$

NCZ095-097-098-100-101-301000-
SOUTHERN COAST

CITY           SKY/WX    TMP DP  RH WIND       PRES   REMARKS
BEAUFORT       PTCLDY    81  80  97 SW5       29.93R
CEDAR ISLAND   NOT AVBL
JACKSONVILLE   MOCLDY    79  76  90 CALM      29.92S
PINEY ISLAND   NOT AVBL
WILMINGTON     MOCLDY    79  75  87 CALM      29.93R


$$

NCZ011>013-027>030-043-044-078>080-089-090>093-098-301000-
COASTAL PLAIN

CITY           SKY/WX    TMP DP  RH WIND       PRES   REMARKS
AHOSKIE        CLEAR     71  71  98 CALM      29.94S
CLINTON        CLEAR     75  74  97 CALM      29.93R
ELIZABETHTOWN  CLEAR     77  76  96 CALM      29.93S
GOLDSBORO      CLEAR     75  75 100 E3        29.92R
GREENVILLE     CLEAR     77  75  94 CALM      29.95S
HAVELOCK       CLEAR     78  75  90 CALM      29.94R
KENANSVILLE    NOT AVBL
KINSTON        CLEAR     76  73  92 CALM      29.94S
NEW BERN       CLEAR     76  74  93 CALM      29.94R
RICHLANDS      PTCLDY    76  74  93 CALM      29.93S
ROCKY MOUNT    CLEAR     73  73 100 CALM      29.94R
WASHINGTON     CLEAR     74  73  95 CALM      29.94R
WHITEVILLE     CLEAR     77  75  95 CALM      29.93R

$$

AMZ130-135-150-152-154-156-158-170-250-252-270-ANZ085-086-088-633-658-670-301000-
MARINE OBSERVATIONS

STATION/POSITION TIME  TEMP    WIND        PRES    WAVE   SWELL
                       AIR SEA DIR/SP/G            HT/PER HT/PER
                 (UTC) (F)     (DEG/KT/KT) (MB)    (FT/S) (FT/S)
CHESAPEAKE LIGHT NOT AVBL
64 E VA BEACH    0850   80 83   40/  6/  6 1013.5    2/ 5   2/ 5
DUCK             0800   80 70  170/  2/  2 1013.0
2 E DUCK         0811      78                N/A     1/13
OREGON INLET     0800   78 77  360/  2/  3 1013.6
13E OREGON INLT  0900      78                N/A     3/ 6   2/ 6
HATTERAS CG      0800   81 83  130/  1/  2 1013.0
DIAMOND BUOY     0850   83 86  340/  2/  4 1013.3    2/ 7   2/ 7
CAPE LOOKOUT     0900   82     260/  5/  6 1013.2
BEAUFORT LAB     0800   82 83  230/  2/  5 1012.7
30 SE NEW RVR IN 0808   84 85  240/  8/ 12 1013.2
30 SE NEW RVR IN 0825      85                N/A     3/ 5
27 SE WRIGHTSVLE 0808   84 84  230/ 12/ 16 1013.2
5 SE WRIGHTSVLE  0808   81 80  220/  4/  8 1013.8
225 S CAPE HAT   0850   84 84  200/ 10/ 12 1015.9    3/ 6   3/ 6
41 SE CHARLESTON 0850   86 86  220/ 17/ 21 1013.1    4/ 5   2/ 8

$$




USA.gov is the U.S. government's official web portal to all federal, state and local government web resources and services.